Index of /20260507/WXO-DD/model_gdps/15km/00/156
Name Last modified Size Description
Parent Directory -
20260507T00Z_MSC_GDPS_AbsoluteVorticity_IsbL-0200_LatLon0.15_PT156H.grib2 2026-05-07 04:41 1.2M
20260507T00Z_MSC_GDPS_AbsoluteVorticity_IsbL-0250_LatLon0.15_PT156H.grib2 2026-05-07 04:41 1.3M
20260507T00Z_MSC_GDPS_AbsoluteVorticity_IsbL-0500_LatLon0.15_PT156H.grib2 2026-05-07 04:41 1.2M
20260507T00Z_MSC_GDPS_AbsoluteVorticity_IsbL-0700_LatLon0.15_PT156H.grib2 2026-05-07 04:41 1.3M
20260507T00Z_MSC_GDPS_AbsoluteVorticity_IsbL-0850_LatLon0.15_PT156H.grib2 2026-05-07 04:41 1.6M
20260507T00Z_MSC_GDPS_AirTemp-Max_AGL-2m_LatLon0.15_PT156H.grib2 2026-05-07 04:41 741K
20260507T00Z_MSC_GDPS_AirTemp-Min_AGL-2m_LatLon0.15_PT156H.grib2 2026-05-07 04:41 790K
20260507T00Z_MSC_GDPS_AirTemp_AGL-120m_LatLon0.15_PT156H.grib2 2026-05-07 04:41 907K
20260507T00Z_MSC_GDPS_AirTemp_AGL-2m_LatLon0.15_PT156H.grib2 2026-05-07 04:41 1.0M
20260507T00Z_MSC_GDPS_AirTemp_AGL-40m_LatLon0.15_PT156H.grib2 2026-05-07 04:41 809K
20260507T00Z_MSC_GDPS_AirTemp_AGL-80m_LatLon0.15_PT156H.grib2 2026-05-07 04:41 798K
20260507T00Z_MSC_GDPS_AirTemp_IsbL-0001_LatLon0.15_PT156H.grib2 2026-05-07 04:41 666K
20260507T00Z_MSC_GDPS_AirTemp_IsbL-0005_LatLon0.15_PT156H.grib2 2026-05-07 04:41 537K
20260507T00Z_MSC_GDPS_AirTemp_IsbL-0010_LatLon0.15_PT156H.grib2 2026-05-07 04:41 704K
20260507T00Z_MSC_GDPS_AirTemp_IsbL-0020_LatLon0.15_PT156H.grib2 2026-05-07 04:41 793K
20260507T00Z_MSC_GDPS_AirTemp_IsbL-0030_LatLon0.15_PT156H.grib2 2026-05-07 04:41 840K
20260507T00Z_MSC_GDPS_AirTemp_IsbL-0050_LatLon0.15_PT156H.grib2 2026-05-07 04:41 883K
20260507T00Z_MSC_GDPS_AirTemp_IsbL-0100_LatLon0.15_PT156H.grib2 2026-05-07 04:41 959K
20260507T00Z_MSC_GDPS_AirTemp_IsbL-0150_LatLon0.15_PT156H.grib2 2026-05-07 04:41 1.0M
20260507T00Z_MSC_GDPS_AirTemp_IsbL-0175_LatLon0.15_PT156H.grib2 2026-05-07 04:41 964K
20260507T00Z_MSC_GDPS_AirTemp_IsbL-0200_LatLon0.15_PT156H.grib2 2026-05-07 04:41 1.0M
20260507T00Z_MSC_GDPS_AirTemp_IsbL-0225_LatLon0.15_PT156H.grib2 2026-05-07 04:41 969K
20260507T00Z_MSC_GDPS_AirTemp_IsbL-0250_LatLon0.15_PT156H.grib2 2026-05-07 04:41 1.0M
20260507T00Z_MSC_GDPS_AirTemp_IsbL-0275_LatLon0.15_PT156H.grib2 2026-05-07 04:41 1.0M
20260507T00Z_MSC_GDPS_AirTemp_IsbL-0300_LatLon0.15_PT156H.grib2 2026-05-07 04:41 1.0M
20260507T00Z_MSC_GDPS_AirTemp_IsbL-0350_LatLon0.15_PT156H.grib2 2026-05-07 04:41 940K
20260507T00Z_MSC_GDPS_AirTemp_IsbL-0400_LatLon0.15_PT156H.grib2 2026-05-07 04:41 951K
20260507T00Z_MSC_GDPS_AirTemp_IsbL-0450_LatLon0.15_PT156H.grib2 2026-05-07 04:41 971K
20260507T00Z_MSC_GDPS_AirTemp_IsbL-0500_LatLon0.15_PT156H.grib2 2026-05-07 04:41 1.0M
20260507T00Z_MSC_GDPS_AirTemp_IsbL-0550_LatLon0.15_PT156H.grib2 2026-05-07 04:41 1.0M
20260507T00Z_MSC_GDPS_AirTemp_IsbL-0600_LatLon0.15_PT156H.grib2 2026-05-07 04:41 900K
20260507T00Z_MSC_GDPS_AirTemp_IsbL-0650_LatLon0.15_PT156H.grib2 2026-05-07 04:41 931K
20260507T00Z_MSC_GDPS_AirTemp_IsbL-0700_LatLon0.15_PT156H.grib2 2026-05-07 04:41 966K
20260507T00Z_MSC_GDPS_AirTemp_IsbL-0750_LatLon0.15_PT156H.grib2 2026-05-07 04:41 1.0M
20260507T00Z_MSC_GDPS_AirTemp_IsbL-0800_LatLon0.15_PT156H.grib2 2026-05-07 04:41 1.1M
20260507T00Z_MSC_GDPS_AirTemp_IsbL-0850_LatLon0.15_PT156H.grib2 2026-05-07 04:41 1.1M
20260507T00Z_MSC_GDPS_AirTemp_IsbL-0875_LatLon0.15_PT156H.grib2 2026-05-07 04:41 1.1M
20260507T00Z_MSC_GDPS_AirTemp_IsbL-0900_LatLon0.15_PT156H.grib2 2026-05-07 04:41 1.1M
20260507T00Z_MSC_GDPS_AirTemp_IsbL-0925_LatLon0.15_PT156H.grib2 2026-05-07 04:41 1.1M
20260507T00Z_MSC_GDPS_AirTemp_IsbL-0950_LatLon0.15_PT156H.grib2 2026-05-07 04:41 1.1M
20260507T00Z_MSC_GDPS_AirTemp_IsbL-0970_LatLon0.15_PT156H.grib2 2026-05-07 04:41 1.2M
20260507T00Z_MSC_GDPS_AirTemp_IsbL-0985_LatLon0.15_PT156H.grib2 2026-05-07 04:41 1.1M
20260507T00Z_MSC_GDPS_AirTemp_IsbL-1000_LatLon0.15_PT156H.grib2 2026-05-07 04:41 1.1M
20260507T00Z_MSC_GDPS_AirTemp_IsbL-1015_LatLon0.15_PT156H.grib2 2026-05-07 04:41 1.1M
20260507T00Z_MSC_GDPS_Albedo_Sfc_LatLon0.15_PT156H.grib2 2026-05-07 04:41 241K
20260507T00Z_MSC_GDPS_CAPE_Sfc_LatLon0.15_PT156H.grib2 2026-05-07 04:41 3.8M
20260507T00Z_MSC_GDPS_CIN_Sfc_LatLon0.15_PT156H.grib2 2026-05-07 04:41 2.9M
20260507T00Z_MSC_GDPS_CloudWater_EAtm_LatLon0.15_PT156H.grib2 2026-05-07 04:41 546K
20260507T00Z_MSC_GDPS_ConvectivePrecip-Accum_Sfc_LatLon0.15_PT156H.grib2 2026-05-07 04:41 3.7M
20260507T00Z_MSC_GDPS_DewPointDepression_AGL-2m_LatLon0.15_PT156H.grib2 2026-05-07 04:41 756K
20260507T00Z_MSC_GDPS_DewPointDepression_IsbL-0010_LatLon0.15_PT156H.grib2 2026-05-07 04:41 65K
20260507T00Z_MSC_GDPS_DewPointDepression_IsbL-0020_LatLon0.15_PT156H.grib2 2026-05-07 04:41 89K
20260507T00Z_MSC_GDPS_DewPointDepression_IsbL-0030_LatLon0.15_PT156H.grib2 2026-05-07 04:41 103K
20260507T00Z_MSC_GDPS_DewPointDepression_IsbL-0050_LatLon0.15_PT156H.grib2 2026-05-07 04:41 373K
20260507T00Z_MSC_GDPS_DewPointDepression_IsbL-0100_LatLon0.15_PT156H.grib2 2026-05-07 04:41 395K
20260507T00Z_MSC_GDPS_DewPointDepression_IsbL-0150_LatLon0.15_PT156H.grib2 2026-05-07 04:41 505K
20260507T00Z_MSC_GDPS_DewPointDepression_IsbL-0175_LatLon0.15_PT156H.grib2 2026-05-07 04:41 604K
20260507T00Z_MSC_GDPS_DewPointDepression_IsbL-0200_LatLon0.15_PT156H.grib2 2026-05-07 04:41 696K
20260507T00Z_MSC_GDPS_DewPointDepression_IsbL-0225_LatLon0.15_PT156H.grib2 2026-05-07 04:41 784K
20260507T00Z_MSC_GDPS_DewPointDepression_IsbL-0250_LatLon0.15_PT156H.grib2 2026-05-07 04:41 879K
20260507T00Z_MSC_GDPS_DewPointDepression_IsbL-0275_LatLon0.15_PT156H.grib2 2026-05-07 04:41 906K
20260507T00Z_MSC_GDPS_DewPointDepression_IsbL-0300_LatLon0.15_PT156H.grib2 2026-05-07 04:41 955K
20260507T00Z_MSC_GDPS_DewPointDepression_IsbL-0350_LatLon0.15_PT156H.grib2 2026-05-07 04:41 1.0M
20260507T00Z_MSC_GDPS_DewPointDepression_IsbL-0400_LatLon0.15_PT156H.grib2 2026-05-07 04:41 1.0M
20260507T00Z_MSC_GDPS_DewPointDepression_IsbL-0450_LatLon0.15_PT156H.grib2 2026-05-07 04:41 1.0M
20260507T00Z_MSC_GDPS_DewPointDepression_IsbL-0500_LatLon0.15_PT156H.grib2 2026-05-07 04:41 1.0M
20260507T00Z_MSC_GDPS_DewPointDepression_IsbL-0550_LatLon0.15_PT156H.grib2 2026-05-07 04:41 1.0M
20260507T00Z_MSC_GDPS_DewPointDepression_IsbL-0600_LatLon0.15_PT156H.grib2 2026-05-07 04:41 1.1M
20260507T00Z_MSC_GDPS_DewPointDepression_IsbL-0650_LatLon0.15_PT156H.grib2 2026-05-07 04:41 1.1M
20260507T00Z_MSC_GDPS_DewPointDepression_IsbL-0700_LatLon0.15_PT156H.grib2 2026-05-07 04:41 1.1M
20260507T00Z_MSC_GDPS_DewPointDepression_IsbL-0750_LatLon0.15_PT156H.grib2 2026-05-07 04:41 1.1M
20260507T00Z_MSC_GDPS_DewPointDepression_IsbL-0800_LatLon0.15_PT156H.grib2 2026-05-07 04:41 1.2M
20260507T00Z_MSC_GDPS_DewPointDepression_IsbL-0850_LatLon0.15_PT156H.grib2 2026-05-07 04:41 1.1M
20260507T00Z_MSC_GDPS_DewPointDepression_IsbL-0875_LatLon0.15_PT156H.grib2 2026-05-07 04:41 1.1M
20260507T00Z_MSC_GDPS_DewPointDepression_IsbL-0900_LatLon0.15_PT156H.grib2 2026-05-07 04:41 1.0M
20260507T00Z_MSC_GDPS_DewPointDepression_IsbL-0925_LatLon0.15_PT156H.grib2 2026-05-07 04:41 1.0M
20260507T00Z_MSC_GDPS_DewPointDepression_IsbL-0950_LatLon0.15_PT156H.grib2 2026-05-07 04:41 1.0M
20260507T00Z_MSC_GDPS_DewPointDepression_IsbL-0970_LatLon0.15_PT156H.grib2 2026-05-07 04:41 1.0M
20260507T00Z_MSC_GDPS_DewPointDepression_IsbL-0985_LatLon0.15_PT156H.grib2 2026-05-07 04:41 973K
20260507T00Z_MSC_GDPS_DewPointDepression_IsbL-1000_LatLon0.15_PT156H.grib2 2026-05-07 04:41 956K
20260507T00Z_MSC_GDPS_DewPointDepression_IsbL-1015_LatLon0.15_PT156H.grib2 2026-05-07 04:41 898K
20260507T00Z_MSC_GDPS_DewPoint_AGL-2m_LatLon0.15_PT156H.grib2 2026-05-07 04:41 606K
20260507T00Z_MSC_GDPS_DownwardLongwaveRadiationFlux-Accum_Sfc_LatLon0.15_PT156H.grib2 2026-05-07 04:41 627K
20260507T00Z_MSC_GDPS_DownwardShortwaveRadiationFlux-Accum_NTAtm_LatLon0.15_PT156H.grib2 2026-05-07 04:41 224K
20260507T00Z_MSC_GDPS_DownwardShortwaveRadiationFlux-Accum_Sfc_LatLon0.15_PT156H.grib2 2026-05-07 04:41 805K
20260507T00Z_MSC_GDPS_FreezingRain-Accum12h_Sfc_LatLon0.15_PT156H.grib2 2026-05-07 04:41 106K
20260507T00Z_MSC_GDPS_FreezingRain-Accum24h_Sfc_LatLon0.15_PT156H.grib2 2026-05-07 04:41 149K
20260507T00Z_MSC_GDPS_FreezingRain-Accum3h_Sfc_LatLon0.15_PT156H.grib2 2026-05-07 04:41 72K
20260507T00Z_MSC_GDPS_FreezingRain-Accum6h_Sfc_LatLon0.15_PT156H.grib2 2026-05-07 04:41 99K
20260507T00Z_MSC_GDPS_FreezingRain-Accum_Sfc_LatLon0.15_PT156H.grib2 2026-05-07 04:41 384K
20260507T00Z_MSC_GDPS_GeopotentialHeight_IsbL-0001_LatLon0.15_PT156H.grib2 2026-05-07 04:41 446K
20260507T00Z_MSC_GDPS_GeopotentialHeight_IsbL-0005_LatLon0.15_PT156H.grib2 2026-05-07 04:41 495K
20260507T00Z_MSC_GDPS_GeopotentialHeight_IsbL-0010_LatLon0.15_PT156H.grib2 2026-05-07 04:41 475K
20260507T00Z_MSC_GDPS_GeopotentialHeight_IsbL-0020_LatLon0.15_PT156H.grib2 2026-05-07 04:41 413K
20260507T00Z_MSC_GDPS_GeopotentialHeight_IsbL-0030_LatLon0.15_PT156H.grib2 2026-05-07 04:41 415K
20260507T00Z_MSC_GDPS_GeopotentialHeight_IsbL-0050_LatLon0.15_PT156H.grib2 2026-05-07 04:41 578K
20260507T00Z_MSC_GDPS_GeopotentialHeight_IsbL-0100_LatLon0.15_PT156H.grib2 2026-05-07 04:41 618K
20260507T00Z_MSC_GDPS_GeopotentialHeight_IsbL-0150_LatLon0.15_PT156H.grib2 2026-05-07 04:41 638K
20260507T00Z_MSC_GDPS_GeopotentialHeight_IsbL-0175_LatLon0.15_PT156H.grib2 2026-05-07 04:41 641K
20260507T00Z_MSC_GDPS_GeopotentialHeight_IsbL-0200_LatLon0.15_PT156H.grib2 2026-05-07 04:41 646K
20260507T00Z_MSC_GDPS_GeopotentialHeight_IsbL-0225_LatLon0.15_PT156H.grib2 2026-05-07 04:41 642K
20260507T00Z_MSC_GDPS_GeopotentialHeight_IsbL-0250_LatLon0.15_PT156H.grib2 2026-05-07 04:41 650K
20260507T00Z_MSC_GDPS_GeopotentialHeight_IsbL-0275_LatLon0.15_PT156H.grib2 2026-05-07 04:41 647K
20260507T00Z_MSC_GDPS_GeopotentialHeight_IsbL-0300_LatLon0.15_PT156H.grib2 2026-05-07 04:41 640K
20260507T00Z_MSC_GDPS_GeopotentialHeight_IsbL-0350_LatLon0.15_PT156H.grib2 2026-05-07 04:41 637K
20260507T00Z_MSC_GDPS_GeopotentialHeight_IsbL-0400_LatLon0.15_PT156H.grib2 2026-05-07 04:41 627K
20260507T00Z_MSC_GDPS_GeopotentialHeight_IsbL-0450_LatLon0.15_PT156H.grib2 2026-05-07 04:41 617K
20260507T00Z_MSC_GDPS_GeopotentialHeight_IsbL-0500_LatLon0.15_PT156H.grib2 2026-05-07 04:41 608K
20260507T00Z_MSC_GDPS_GeopotentialHeight_IsbL-0550_LatLon0.15_PT156H.grib2 2026-05-07 04:41 532K
20260507T00Z_MSC_GDPS_GeopotentialHeight_IsbL-0600_LatLon0.15_PT156H.grib2 2026-05-07 04:41 528K
20260507T00Z_MSC_GDPS_GeopotentialHeight_IsbL-0650_LatLon0.15_PT156H.grib2 2026-05-07 04:41 527K
20260507T00Z_MSC_GDPS_GeopotentialHeight_IsbL-0700_LatLon0.15_PT156H.grib2 2026-05-07 04:41 693K
20260507T00Z_MSC_GDPS_GeopotentialHeight_IsbL-0750_LatLon0.15_PT156H.grib2 2026-05-07 04:41 703K
20260507T00Z_MSC_GDPS_GeopotentialHeight_IsbL-0800_LatLon0.15_PT156H.grib2 2026-05-07 04:41 713K
20260507T00Z_MSC_GDPS_GeopotentialHeight_IsbL-0850_LatLon0.15_PT156H.grib2 2026-05-07 04:41 720K
20260507T00Z_MSC_GDPS_GeopotentialHeight_IsbL-0875_LatLon0.15_PT156H.grib2 2026-05-07 04:41 724K
20260507T00Z_MSC_GDPS_GeopotentialHeight_IsbL-0900_LatLon0.15_PT156H.grib2 2026-05-07 04:41 731K
20260507T00Z_MSC_GDPS_GeopotentialHeight_IsbL-0925_LatLon0.15_PT156H.grib2 2026-05-07 04:41 738K
20260507T00Z_MSC_GDPS_GeopotentialHeight_IsbL-0950_LatLon0.15_PT156H.grib2 2026-05-07 04:41 568K
20260507T00Z_MSC_GDPS_GeopotentialHeight_IsbL-0970_LatLon0.15_PT156H.grib2 2026-05-07 04:41 577K
20260507T00Z_MSC_GDPS_GeopotentialHeight_IsbL-0985_LatLon0.15_PT156H.grib2 2026-05-07 04:41 588K
20260507T00Z_MSC_GDPS_GeopotentialHeight_IsbL-1000_LatLon0.15_PT156H.grib2 2026-05-07 04:41 604K
20260507T00Z_MSC_GDPS_GeopotentialHeight_IsbL-1015_LatLon0.15_PT156H.grib2 2026-05-07 04:41 622K
20260507T00Z_MSC_GDPS_Humidex_Sfc_LatLon0.15_PT156H.grib2 2026-05-07 04:41 5.3M
20260507T00Z_MSC_GDPS_IcePellets-Accum12h_Sfc_LatLon0.15_PT156H.grib2 2026-05-07 04:41 65K
20260507T00Z_MSC_GDPS_IcePellets-Accum24h_Sfc_LatLon0.15_PT156H.grib2 2026-05-07 04:41 59K
20260507T00Z_MSC_GDPS_IcePellets-Accum3h_Sfc_LatLon0.15_PT156H.grib2 2026-05-07 04:41 37K
20260507T00Z_MSC_GDPS_IcePellets-Accum6h_Sfc_LatLon0.15_PT156H.grib2 2026-05-07 04:41 48K
20260507T00Z_MSC_GDPS_IcePellets-Accum_Sfc_LatLon0.15_PT156H.grib2 2026-05-07 04:41 185K
20260507T00Z_MSC_GDPS_KIndex_Sfc_LatLon0.15_PT156H.grib2 2026-05-07 04:41 6.5M
20260507T00Z_MSC_GDPS_LatentHeatNetFlux_Sfc_LatLon0.15_PT156H.grib2 2026-05-07 04:41 556K
20260507T00Z_MSC_GDPS_LiftedIndex-MU-VT_IsbL-0500_LatLon0.15_PT156H.grib2 2026-05-07 04:41 5.4M
20260507T00Z_MSC_GDPS_NetLongwaveRadiationFlux-Accum_Sfc_LatLon0.15_PT156H.grib2 2026-05-07 04:41 1.1M
20260507T00Z_MSC_GDPS_NetShortwaveRadiationFlux-Accum_Sfc_LatLon0.15_PT156H.grib2 2026-05-07 04:41 1.0M
20260507T00Z_MSC_GDPS_O3MixingRatio_Sfc_LatLon0.15_PT156H.grib2 2026-05-07 04:56 2.2M
20260507T00Z_MSC_GDPS_O3_EAtm_LatLon0.15_PT156H.grib2 2026-05-07 04:56 2.4M
20260507T00Z_MSC_GDPS_PlanetaryBoundaryLayerHeight_Sfc_LatLon0.15_PT156H.grib2 2026-05-07 04:41 2.5M
20260507T00Z_MSC_GDPS_Precip-Accum12h_Sfc_LatLon0.15_PT156H.grib2 2026-05-07 04:41 4.0M
20260507T00Z_MSC_GDPS_Precip-Accum24h_Sfc_LatLon0.15_PT156H.grib2 2026-05-07 04:41 4.3M
20260507T00Z_MSC_GDPS_Precip-Accum3h_Sfc_LatLon0.15_PT156H.grib2 2026-05-07 04:41 3.6M
20260507T00Z_MSC_GDPS_Precip-Accum6h_Sfc_LatLon0.15_PT156H.grib2 2026-05-07 04:41 3.9M
20260507T00Z_MSC_GDPS_Precip-Accum_Sfc_LatLon0.15_PT156H.grib2 2026-05-07 04:41 5.0M
20260507T00Z_MSC_GDPS_PrecipRate_Sfc_LatLon0.15_PT156H.grib2 2026-05-07 04:41 3.3M
20260507T00Z_MSC_GDPS_PrecipType-Instant_Sfc_LatLon0.15_PT156H.grib2 2026-05-07 04:41 1.6M
20260507T00Z_MSC_GDPS_Pressure_MSL_LatLon0.15_PT156H.grib2 2026-05-07 04:41 838K
20260507T00Z_MSC_GDPS_Pressure_PVU-1.5_LatLon0.15_PT156H.grib2 2026-05-07 04:41 5.8M
20260507T00Z_MSC_GDPS_Pressure_PVU-1_LatLon0.15_PT156H.grib2 2026-05-07 04:41 6.0M
20260507T00Z_MSC_GDPS_Pressure_PVU-2_LatLon0.15_PT156H.grib2 2026-05-07 04:41 5.7M
20260507T00Z_MSC_GDPS_Pressure_Sfc_LatLon0.15_PT156H.grib2 2026-05-07 04:41 1.1M
20260507T00Z_MSC_GDPS_RadiativeTemp_Sfc_LatLon0.15_PT156H.grib2 2026-05-07 04:41 497K
20260507T00Z_MSC_GDPS_Rain-Accum12h_Sfc_LatLon0.15_PT156H.grib2 2026-05-07 04:41 2.7M
20260507T00Z_MSC_GDPS_Rain-Accum24h_Sfc_LatLon0.15_PT156H.grib2 2026-05-07 04:41 2.9M
20260507T00Z_MSC_GDPS_Rain-Accum3h_Sfc_LatLon0.15_PT156H.grib2 2026-05-07 04:41 1.7M
20260507T00Z_MSC_GDPS_Rain-Accum6h_Sfc_LatLon0.15_PT156H.grib2 2026-05-07 04:41 2.5M
20260507T00Z_MSC_GDPS_Rain-Accum_Sfc_LatLon0.15_PT156H.grib2 2026-05-07 04:41 3.9M
20260507T00Z_MSC_GDPS_RelativeHumidity_AGL-2m_LatLon0.15_PT156H.grib2 2026-05-07 04:41 1.0M
20260507T00Z_MSC_GDPS_RelativeHumidity_IsbL-0010_LatLon0.15_PT156H.grib2 2026-05-07 04:41 152K
20260507T00Z_MSC_GDPS_RelativeHumidity_IsbL-0020_LatLon0.15_PT156H.grib2 2026-05-07 04:41 123K
20260507T00Z_MSC_GDPS_RelativeHumidity_IsbL-0030_LatLon0.15_PT156H.grib2 2026-05-07 04:41 192K
20260507T00Z_MSC_GDPS_RelativeHumidity_IsbL-0050_LatLon0.15_PT156H.grib2 2026-05-07 04:41 338K
20260507T00Z_MSC_GDPS_RelativeHumidity_IsbL-0100_LatLon0.15_PT156H.grib2 2026-05-07 04:41 498K
20260507T00Z_MSC_GDPS_RelativeHumidity_IsbL-0150_LatLon0.15_PT156H.grib2 2026-05-07 04:41 682K
20260507T00Z_MSC_GDPS_RelativeHumidity_IsbL-0175_LatLon0.15_PT156H.grib2 2026-05-07 04:41 815K
20260507T00Z_MSC_GDPS_RelativeHumidity_IsbL-0200_LatLon0.15_PT156H.grib2 2026-05-07 04:41 729K
20260507T00Z_MSC_GDPS_RelativeHumidity_IsbL-0225_LatLon0.15_PT156H.grib2 2026-05-07 04:41 810K
20260507T00Z_MSC_GDPS_RelativeHumidity_IsbL-0250_LatLon0.15_PT156H.grib2 2026-05-07 04:41 878K
20260507T00Z_MSC_GDPS_RelativeHumidity_IsbL-0275_LatLon0.15_PT156H.grib2 2026-05-07 04:41 901K
20260507T00Z_MSC_GDPS_RelativeHumidity_IsbL-0300_LatLon0.15_PT156H.grib2 2026-05-07 04:41 944K
20260507T00Z_MSC_GDPS_RelativeHumidity_IsbL-0350_LatLon0.15_PT156H.grib2 2026-05-07 04:41 958K
20260507T00Z_MSC_GDPS_RelativeHumidity_IsbL-0400_LatLon0.15_PT156H.grib2 2026-05-07 04:41 1.0M
20260507T00Z_MSC_GDPS_RelativeHumidity_IsbL-0450_LatLon0.15_PT156H.grib2 2026-05-07 04:41 1.0M
20260507T00Z_MSC_GDPS_RelativeHumidity_IsbL-0500_LatLon0.15_PT156H.grib2 2026-05-07 04:41 1.0M
20260507T00Z_MSC_GDPS_RelativeHumidity_IsbL-0550_LatLon0.15_PT156H.grib2 2026-05-07 04:41 1.0M
20260507T00Z_MSC_GDPS_RelativeHumidity_IsbL-0600_LatLon0.15_PT156H.grib2 2026-05-07 04:41 1.0M
20260507T00Z_MSC_GDPS_RelativeHumidity_IsbL-0650_LatLon0.15_PT156H.grib2 2026-05-07 04:41 1.1M
20260507T00Z_MSC_GDPS_RelativeHumidity_IsbL-0700_LatLon0.15_PT156H.grib2 2026-05-07 04:41 1.1M
20260507T00Z_MSC_GDPS_RelativeHumidity_IsbL-0750_LatLon0.15_PT156H.grib2 2026-05-07 04:41 1.1M
20260507T00Z_MSC_GDPS_RelativeHumidity_IsbL-0800_LatLon0.15_PT156H.grib2 2026-05-07 04:41 1.2M
20260507T00Z_MSC_GDPS_RelativeHumidity_IsbL-0850_LatLon0.15_PT156H.grib2 2026-05-07 04:41 1.2M
20260507T00Z_MSC_GDPS_RelativeHumidity_IsbL-0875_LatLon0.15_PT156H.grib2 2026-05-07 04:41 1.2M
20260507T00Z_MSC_GDPS_RelativeHumidity_IsbL-0900_LatLon0.15_PT156H.grib2 2026-05-07 04:41 1.2M
20260507T00Z_MSC_GDPS_RelativeHumidity_IsbL-0925_LatLon0.15_PT156H.grib2 2026-05-07 04:41 1.2M
20260507T00Z_MSC_GDPS_RelativeHumidity_IsbL-0950_LatLon0.15_PT156H.grib2 2026-05-07 04:41 1.2M
20260507T00Z_MSC_GDPS_RelativeHumidity_IsbL-0970_LatLon0.15_PT156H.grib2 2026-05-07 04:41 1.2M
20260507T00Z_MSC_GDPS_RelativeHumidity_IsbL-0985_LatLon0.15_PT156H.grib2 2026-05-07 04:41 1.1M
20260507T00Z_MSC_GDPS_RelativeHumidity_IsbL-1000_LatLon0.15_PT156H.grib2 2026-05-07 04:41 1.1M
20260507T00Z_MSC_GDPS_RelativeHumidity_IsbL-1015_LatLon0.15_PT156H.grib2 2026-05-07 04:41 1.0M
20260507T00Z_MSC_GDPS_RelativeVorticity_IsbL-0200_LatLon0.15_PT156H.grib2 2026-05-07 04:41 1.2M
20260507T00Z_MSC_GDPS_RelativeVorticity_IsbL-0250_LatLon0.15_PT156H.grib2 2026-05-07 04:41 1.3M
20260507T00Z_MSC_GDPS_RelativeVorticity_IsbL-0500_LatLon0.15_PT156H.grib2 2026-05-07 04:41 1.2M
20260507T00Z_MSC_GDPS_RelativeVorticity_IsbL-0700_LatLon0.15_PT156H.grib2 2026-05-07 04:41 1.3M
20260507T00Z_MSC_GDPS_RelativeVorticity_IsbL-0850_LatLon0.15_PT156H.grib2 2026-05-07 04:41 1.6M
20260507T00Z_MSC_GDPS_Runoff-Accum_Sfc_LatLon0.15_PT156H.grib2 2026-05-07 04:41 116K
20260507T00Z_MSC_GDPS_SensibleHeatNetFlux_Sfc_LatLon0.15_PT156H.grib2 2026-05-07 04:41 485K
20260507T00Z_MSC_GDPS_ShowalterIndex_IsbL-0500_LatLon0.15_PT156H.grib2 2026-05-07 04:41 6.2M
20260507T00Z_MSC_GDPS_Snow-Accum12h_Sfc_LatLon0.15_PT156H.grib2 2026-05-07 04:41 1.4M
20260507T00Z_MSC_GDPS_Snow-Accum24h_Sfc_LatLon0.15_PT156H.grib2 2026-05-07 04:41 1.6M
20260507T00Z_MSC_GDPS_Snow-Accum3h_Sfc_LatLon0.15_PT156H.grib2 2026-05-07 04:41 1.1M
20260507T00Z_MSC_GDPS_Snow-Accum6h_Sfc_LatLon0.15_PT156H.grib2 2026-05-07 04:41 1.4M
20260507T00Z_MSC_GDPS_Snow-Accum_Sfc_LatLon0.15_PT156H.grib2 2026-05-07 04:41 2.0M
20260507T00Z_MSC_GDPS_SnowDensity_Sfc_LatLon0.15_PT156H.grib2 2026-05-07 04:41 260K
20260507T00Z_MSC_GDPS_SnowDepth_Sfc_LatLon0.15_PT156H.grib2 2026-05-07 04:41 1.7M
20260507T00Z_MSC_GDPS_SoilTemp_DBS-0to10cm_LatLon0.15_PT156H.grib2 2026-05-07 04:41 515K
20260507T00Z_MSC_GDPS_SoilTemp_Sfc_LatLon0.15_PT156H.grib2 2026-05-07 04:41 593K
20260507T00Z_MSC_GDPS_SoilVolumetricIceContent_Sfc_LatLon0.15_PT156H.grib2 2026-05-07 04:41 172K
20260507T00Z_MSC_GDPS_SoilVolumetricWaterContent_DBS-0to10cm_LatLon0.15_PT156H.grib2 2026-05-07 04:41 603K
20260507T00Z_MSC_GDPS_SoilVolumetricWaterContent_DBS-0to1cm_LatLon0.15_PT156H.grib2 2026-05-07 04:41 643K
20260507T00Z_MSC_GDPS_SpecificHumidity_AGL-120m_LatLon0.15_PT156H.grib2 2026-05-07 04:41 1.1M
20260507T00Z_MSC_GDPS_SpecificHumidity_AGL-2m_LatLon0.15_PT156H.grib2 2026-05-07 04:41 1.2M
20260507T00Z_MSC_GDPS_SpecificHumidity_AGL-40m_LatLon0.15_PT156H.grib2 2026-05-07 04:41 1.1M
20260507T00Z_MSC_GDPS_SpecificHumidity_AGL-80m_LatLon0.15_PT156H.grib2 2026-05-07 04:41 1.1M
20260507T00Z_MSC_GDPS_SpecificHumidity_IsbL-0001_LatLon0.15_PT156H.grib2 2026-05-07 04:41 1.2M
20260507T00Z_MSC_GDPS_SpecificHumidity_IsbL-0005_LatLon0.15_PT156H.grib2 2026-05-07 04:41 1.1M
20260507T00Z_MSC_GDPS_SpecificHumidity_IsbL-0010_LatLon0.15_PT156H.grib2 2026-05-07 04:41 1.2M
20260507T00Z_MSC_GDPS_SpecificHumidity_IsbL-0020_LatLon0.15_PT156H.grib2 2026-05-07 04:41 1.2M
20260507T00Z_MSC_GDPS_SpecificHumidity_IsbL-0030_LatLon0.15_PT156H.grib2 2026-05-07 04:41 1.2M
20260507T00Z_MSC_GDPS_SpecificHumidity_IsbL-0050_LatLon0.15_PT156H.grib2 2026-05-07 04:41 1.5M
20260507T00Z_MSC_GDPS_SpecificHumidity_IsbL-0100_LatLon0.15_PT156H.grib2 2026-05-07 04:41 1.5M
20260507T00Z_MSC_GDPS_SpecificHumidity_IsbL-0150_LatLon0.15_PT156H.grib2 2026-05-07 04:41 1.3M
20260507T00Z_MSC_GDPS_SpecificHumidity_IsbL-0175_LatLon0.15_PT156H.grib2 2026-05-07 04:41 1.3M
20260507T00Z_MSC_GDPS_SpecificHumidity_IsbL-0200_LatLon0.15_PT156H.grib2 2026-05-07 04:41 1.3M
20260507T00Z_MSC_GDPS_SpecificHumidity_IsbL-0225_LatLon0.15_PT156H.grib2 2026-05-07 04:41 1.3M
20260507T00Z_MSC_GDPS_SpecificHumidity_IsbL-0250_LatLon0.15_PT156H.grib2 2026-05-07 04:41 1.2M
20260507T00Z_MSC_GDPS_SpecificHumidity_IsbL-0275_LatLon0.15_PT156H.grib2 2026-05-07 04:41 1.1M
20260507T00Z_MSC_GDPS_SpecificHumidity_IsbL-0300_LatLon0.15_PT156H.grib2 2026-05-07 04:41 1.3M
20260507T00Z_MSC_GDPS_SpecificHumidity_IsbL-0350_LatLon0.15_PT156H.grib2 2026-05-07 04:41 1.3M
20260507T00Z_MSC_GDPS_SpecificHumidity_IsbL-0400_LatLon0.15_PT156H.grib2 2026-05-07 04:41 1.5M
20260507T00Z_MSC_GDPS_SpecificHumidity_IsbL-0450_LatLon0.15_PT156H.grib2 2026-05-07 04:41 1.3M
20260507T00Z_MSC_GDPS_SpecificHumidity_IsbL-0500_LatLon0.15_PT156H.grib2 2026-05-07 04:41 1.5M
20260507T00Z_MSC_GDPS_SpecificHumidity_IsbL-0550_LatLon0.15_PT156H.grib2 2026-05-07 04:41 1.6M
20260507T00Z_MSC_GDPS_SpecificHumidity_IsbL-0600_LatLon0.15_PT156H.grib2 2026-05-07 04:41 1.5M
20260507T00Z_MSC_GDPS_SpecificHumidity_IsbL-0650_LatLon0.15_PT156H.grib2 2026-05-07 04:41 1.6M
20260507T00Z_MSC_GDPS_SpecificHumidity_IsbL-0700_LatLon0.15_PT156H.grib2 2026-05-07 04:41 1.7M
20260507T00Z_MSC_GDPS_SpecificHumidity_IsbL-0750_LatLon0.15_PT156H.grib2 2026-05-07 04:41 1.8M
20260507T00Z_MSC_GDPS_SpecificHumidity_IsbL-0800_LatLon0.15_PT156H.grib2 2026-05-07 04:41 1.9M
20260507T00Z_MSC_GDPS_SpecificHumidity_IsbL-0850_LatLon0.15_PT156H.grib2 2026-05-07 04:41 2.0M
20260507T00Z_MSC_GDPS_SpecificHumidity_IsbL-0875_LatLon0.15_PT156H.grib2 2026-05-07 04:41 2.0M
20260507T00Z_MSC_GDPS_SpecificHumidity_IsbL-0900_LatLon0.15_PT156H.grib2 2026-05-07 04:41 1.9M
20260507T00Z_MSC_GDPS_SpecificHumidity_IsbL-0925_LatLon0.15_PT156H.grib2 2026-05-07 04:41 1.6M
20260507T00Z_MSC_GDPS_SpecificHumidity_IsbL-0950_LatLon0.15_PT156H.grib2 2026-05-07 04:41 1.6M
20260507T00Z_MSC_GDPS_SpecificHumidity_IsbL-0970_LatLon0.15_PT156H.grib2 2026-05-07 04:41 1.6M
20260507T00Z_MSC_GDPS_SpecificHumidity_IsbL-0985_LatLon0.15_PT156H.grib2 2026-05-07 04:41 1.6M
20260507T00Z_MSC_GDPS_SpecificHumidity_IsbL-1000_LatLon0.15_PT156H.grib2 2026-05-07 04:41 1.5M
20260507T00Z_MSC_GDPS_SpecificHumidity_IsbL-1015_LatLon0.15_PT156H.grib2 2026-05-07 04:41 1.5M
20260507T00Z_MSC_GDPS_SpecificHumidity_Sfc_LatLon0.15_PT156H.grib2 2026-05-07 04:41 693K
20260507T00Z_MSC_GDPS_Thickness_IsbL-0850to0700_LatLon0.15_PT156H.grib2 2026-05-07 04:41 473K
20260507T00Z_MSC_GDPS_Thickness_IsbL-1000to0500_LatLon0.15_PT156H.grib2 2026-05-07 04:41 376K
20260507T00Z_MSC_GDPS_Thickness_IsbL-1000to0850_LatLon0.15_PT156H.grib2 2026-05-07 04:41 489K
20260507T00Z_MSC_GDPS_TotalCloudCover_Sfc_LatLon0.15_PT156H.grib2 2026-05-07 04:41 846K
20260507T00Z_MSC_GDPS_TotalTotalsIndex_Sfc_LatLon0.15_PT156H.grib2 2026-05-07 04:41 6.2M
20260507T00Z_MSC_GDPS_UVIndex-ClearSky_Sfc_LatLon0.15_PT156H.grib2 2026-05-07 04:56 1.0M
20260507T00Z_MSC_GDPS_UVIndex_Sfc_LatLon0.15_PT156H.grib2 2026-05-07 04:56 1.5M
20260507T00Z_MSC_GDPS_UpwardLongwaveRadiationFlux_NTAtm_LatLon0.15_PT156H.grib2 2026-05-07 04:41 856K
20260507T00Z_MSC_GDPS_VerticalVelocity_IsbL-0200_LatLon0.15_PT156H.grib2 2026-05-07 04:41 1.1M
20260507T00Z_MSC_GDPS_VerticalVelocity_IsbL-0250_LatLon0.15_PT156H.grib2 2026-05-07 04:41 1.0M
20260507T00Z_MSC_GDPS_VerticalVelocity_IsbL-0500_LatLon0.15_PT156H.grib2 2026-05-07 04:41 1.3M
20260507T00Z_MSC_GDPS_VerticalVelocity_IsbL-0600_LatLon0.15_PT156H.grib2 2026-05-07 04:41 1.4M
20260507T00Z_MSC_GDPS_VerticalVelocity_IsbL-0700_LatLon0.15_PT156H.grib2 2026-05-07 04:41 1.4M
20260507T00Z_MSC_GDPS_VerticalVelocity_IsbL-0850_LatLon0.15_PT156H.grib2 2026-05-07 04:41 1.3M
20260507T00Z_MSC_GDPS_WindChill_Sfc_LatLon0.15_PT156H.grib2 2026-05-07 04:41 5.3M
20260507T00Z_MSC_GDPS_WindDir_AGL-10m_LatLon0.15_PT156H.grib2 2026-05-07 04:41 1.3M
20260507T00Z_MSC_GDPS_WindDir_AGL-120m_LatLon0.15_PT156H.grib2 2026-05-07 04:41 1.3M
20260507T00Z_MSC_GDPS_WindDir_AGL-40m_LatLon0.15_PT156H.grib2 2026-05-07 04:41 1.4M
20260507T00Z_MSC_GDPS_WindDir_AGL-80m_LatLon0.15_PT156H.grib2 2026-05-07 04:41 1.3M
20260507T00Z_MSC_GDPS_WindDir_IsbL-0001_LatLon0.15_PT156H.grib2 2026-05-07 04:41 642K
20260507T00Z_MSC_GDPS_WindDir_IsbL-0005_LatLon0.15_PT156H.grib2 2026-05-07 04:41 805K
20260507T00Z_MSC_GDPS_WindDir_IsbL-0010_LatLon0.15_PT156H.grib2 2026-05-07 04:41 835K
20260507T00Z_MSC_GDPS_WindDir_IsbL-0020_LatLon0.15_PT156H.grib2 2026-05-07 04:41 932K
20260507T00Z_MSC_GDPS_WindDir_IsbL-0030_LatLon0.15_PT156H.grib2 2026-05-07 04:41 961K
20260507T00Z_MSC_GDPS_WindDir_IsbL-0050_LatLon0.15_PT156H.grib2 2026-05-07 04:41 961K
20260507T00Z_MSC_GDPS_WindDir_IsbL-0100_LatLon0.15_PT156H.grib2 2026-05-07 04:41 1.0M
20260507T00Z_MSC_GDPS_WindDir_IsbL-0150_LatLon0.15_PT156H.grib2 2026-05-07 04:41 1.0M
20260507T00Z_MSC_GDPS_WindDir_IsbL-0175_LatLon0.15_PT156H.grib2 2026-05-07 04:41 1.1M
20260507T00Z_MSC_GDPS_WindDir_IsbL-0200_LatLon0.15_PT156H.grib2 2026-05-07 04:41 1.1M
20260507T00Z_MSC_GDPS_WindDir_IsbL-0225_LatLon0.15_PT156H.grib2 2026-05-07 04:41 1.1M
20260507T00Z_MSC_GDPS_WindDir_IsbL-0250_LatLon0.15_PT156H.grib2 2026-05-07 04:41 1.1M
20260507T00Z_MSC_GDPS_WindDir_IsbL-0275_LatLon0.15_PT156H.grib2 2026-05-07 04:41 1.2M
20260507T00Z_MSC_GDPS_WindDir_IsbL-0300_LatLon0.15_PT156H.grib2 2026-05-07 04:41 1.2M
20260507T00Z_MSC_GDPS_WindDir_IsbL-0350_LatLon0.15_PT156H.grib2 2026-05-07 04:41 1.3M
20260507T00Z_MSC_GDPS_WindDir_IsbL-0400_LatLon0.15_PT156H.grib2 2026-05-07 04:41 1.3M
20260507T00Z_MSC_GDPS_WindDir_IsbL-0450_LatLon0.15_PT156H.grib2 2026-05-07 04:41 1.3M
20260507T00Z_MSC_GDPS_WindDir_IsbL-0500_LatLon0.15_PT156H.grib2 2026-05-07 04:41 1.4M
20260507T00Z_MSC_GDPS_WindDir_IsbL-0550_LatLon0.15_PT156H.grib2 2026-05-07 04:41 1.4M
20260507T00Z_MSC_GDPS_WindDir_IsbL-0600_LatLon0.15_PT156H.grib2 2026-05-07 04:41 1.5M
20260507T00Z_MSC_GDPS_WindDir_IsbL-0650_LatLon0.15_PT156H.grib2 2026-05-07 04:41 1.5M
20260507T00Z_MSC_GDPS_WindDir_IsbL-0700_LatLon0.15_PT156H.grib2 2026-05-07 04:41 1.6M
20260507T00Z_MSC_GDPS_WindDir_IsbL-0750_LatLon0.15_PT156H.grib2 2026-05-07 04:41 1.7M
20260507T00Z_MSC_GDPS_WindDir_IsbL-0800_LatLon0.15_PT156H.grib2 2026-05-07 04:41 1.8M
20260507T00Z_MSC_GDPS_WindDir_IsbL-0850_LatLon0.15_PT156H.grib2 2026-05-07 04:41 1.9M
20260507T00Z_MSC_GDPS_WindDir_IsbL-0875_LatLon0.15_PT156H.grib2 2026-05-07 04:41 1.9M
20260507T00Z_MSC_GDPS_WindDir_IsbL-0900_LatLon0.15_PT156H.grib2 2026-05-07 04:41 1.9M
20260507T00Z_MSC_GDPS_WindDir_IsbL-0925_LatLon0.15_PT156H.grib2 2026-05-07 04:41 1.9M
20260507T00Z_MSC_GDPS_WindDir_IsbL-0950_LatLon0.15_PT156H.grib2 2026-05-07 04:41 1.9M
20260507T00Z_MSC_GDPS_WindDir_IsbL-0970_LatLon0.15_PT156H.grib2 2026-05-07 04:41 2.0M
20260507T00Z_MSC_GDPS_WindDir_IsbL-0985_LatLon0.15_PT156H.grib2 2026-05-07 04:41 2.0M
20260507T00Z_MSC_GDPS_WindDir_IsbL-1000_LatLon0.15_PT156H.grib2 2026-05-07 04:41 2.0M
20260507T00Z_MSC_GDPS_WindDir_IsbL-1015_LatLon0.15_PT156H.grib2 2026-05-07 04:41 2.0M
20260507T00Z_MSC_GDPS_WindGust-Max_AGL-10m_LatLon0.15_PT156H.grib2 2026-05-07 04:41 2.2M
20260507T00Z_MSC_GDPS_WindGust-Min_AGL-10m_LatLon0.15_PT156H.grib2 2026-05-07 04:41 2.2M
20260507T00Z_MSC_GDPS_WindGust_AGL-10m_LatLon0.15_PT156H.grib2 2026-05-07 04:41 2.1M
20260507T00Z_MSC_GDPS_WindSpeed_AGL-10m_LatLon0.15_PT156H.grib2 2026-05-07 04:41 1.1M
20260507T00Z_MSC_GDPS_WindSpeed_AGL-120m_LatLon0.15_PT156H.grib2 2026-05-07 04:41 1.2M
20260507T00Z_MSC_GDPS_WindSpeed_AGL-40m_LatLon0.15_PT156H.grib2 2026-05-07 04:41 1.2M
20260507T00Z_MSC_GDPS_WindSpeed_AGL-80m_LatLon0.15_PT156H.grib2 2026-05-07 04:41 1.2M
20260507T00Z_MSC_GDPS_WindSpeed_IsbL-0001_LatLon0.15_PT156H.grib2 2026-05-07 04:41 506K
20260507T00Z_MSC_GDPS_WindSpeed_IsbL-0005_LatLon0.15_PT156H.grib2 2026-05-07 04:41 695K
20260507T00Z_MSC_GDPS_WindSpeed_IsbL-0010_LatLon0.15_PT156H.grib2 2026-05-07 04:41 626K
20260507T00Z_MSC_GDPS_WindSpeed_IsbL-0020_LatLon0.15_PT156H.grib2 2026-05-07 04:41 666K
20260507T00Z_MSC_GDPS_WindSpeed_IsbL-0030_LatLon0.15_PT156H.grib2 2026-05-07 04:41 669K
20260507T00Z_MSC_GDPS_WindSpeed_IsbL-0050_LatLon0.15_PT156H.grib2 2026-05-07 04:41 895K
20260507T00Z_MSC_GDPS_WindSpeed_IsbL-0100_LatLon0.15_PT156H.grib2 2026-05-07 04:41 1.1M
20260507T00Z_MSC_GDPS_WindSpeed_IsbL-0150_LatLon0.15_PT156H.grib2 2026-05-07 04:41 1.0M
20260507T00Z_MSC_GDPS_WindSpeed_IsbL-0175_LatLon0.15_PT156H.grib2 2026-05-07 04:41 1.0M
20260507T00Z_MSC_GDPS_WindSpeed_IsbL-0200_LatLon0.15_PT156H.grib2 2026-05-07 04:41 1.1M
20260507T00Z_MSC_GDPS_WindSpeed_IsbL-0225_LatLon0.15_PT156H.grib2 2026-05-07 04:41 1.1M
20260507T00Z_MSC_GDPS_WindSpeed_IsbL-0250_LatLon0.15_PT156H.grib2 2026-05-07 04:41 1.1M
20260507T00Z_MSC_GDPS_WindSpeed_IsbL-0275_LatLon0.15_PT156H.grib2 2026-05-07 04:41 1.1M
20260507T00Z_MSC_GDPS_WindSpeed_IsbL-0300_LatLon0.15_PT156H.grib2 2026-05-07 04:41 1.1M
20260507T00Z_MSC_GDPS_WindSpeed_IsbL-0350_LatLon0.15_PT156H.grib2 2026-05-07 04:41 1.1M
20260507T00Z_MSC_GDPS_WindSpeed_IsbL-0400_LatLon0.15_PT156H.grib2 2026-05-07 04:41 1.1M
20260507T00Z_MSC_GDPS_WindSpeed_IsbL-0450_LatLon0.15_PT156H.grib2 2026-05-07 04:41 1.1M
20260507T00Z_MSC_GDPS_WindSpeed_IsbL-0500_LatLon0.15_PT156H.grib2 2026-05-07 04:41 1.1M
20260507T00Z_MSC_GDPS_WindSpeed_IsbL-0550_LatLon0.15_PT156H.grib2 2026-05-07 04:41 1.1M
20260507T00Z_MSC_GDPS_WindSpeed_IsbL-0600_LatLon0.15_PT156H.grib2 2026-05-07 04:41 1.4M
20260507T00Z_MSC_GDPS_WindSpeed_IsbL-0650_LatLon0.15_PT156H.grib2 2026-05-07 04:41 1.5M
20260507T00Z_MSC_GDPS_WindSpeed_IsbL-0700_LatLon0.15_PT156H.grib2 2026-05-07 04:41 1.5M
20260507T00Z_MSC_GDPS_WindSpeed_IsbL-0750_LatLon0.15_PT156H.grib2 2026-05-07 04:41 1.6M
20260507T00Z_MSC_GDPS_WindSpeed_IsbL-0800_LatLon0.15_PT156H.grib2 2026-05-07 04:41 1.7M
20260507T00Z_MSC_GDPS_WindSpeed_IsbL-0850_LatLon0.15_PT156H.grib2 2026-05-07 04:41 1.7M
20260507T00Z_MSC_GDPS_WindSpeed_IsbL-0875_LatLon0.15_PT156H.grib2 2026-05-07 04:41 1.8M
20260507T00Z_MSC_GDPS_WindSpeed_IsbL-0900_LatLon0.15_PT156H.grib2 2026-05-07 04:41 1.8M
20260507T00Z_MSC_GDPS_WindSpeed_IsbL-0925_LatLon0.15_PT156H.grib2 2026-05-07 04:41 1.8M
20260507T00Z_MSC_GDPS_WindSpeed_IsbL-0950_LatLon0.15_PT156H.grib2 2026-05-07 04:41 1.8M
20260507T00Z_MSC_GDPS_WindSpeed_IsbL-0970_LatLon0.15_PT156H.grib2 2026-05-07 04:41 1.9M
20260507T00Z_MSC_GDPS_WindSpeed_IsbL-0985_LatLon0.15_PT156H.grib2 2026-05-07 04:41 1.9M
20260507T00Z_MSC_GDPS_WindSpeed_IsbL-1000_LatLon0.15_PT156H.grib2 2026-05-07 04:41 1.9M
20260507T00Z_MSC_GDPS_WindSpeed_IsbL-1015_LatLon0.15_PT156H.grib2 2026-05-07 04:41 1.8M
20260507T00Z_MSC_GDPS_WindU_AGL-10m_LatLon0.15_PT156H.grib2 2026-05-07 04:41 1.3M
20260507T00Z_MSC_GDPS_WindU_AGL-120m_LatLon0.15_PT156H.grib2 2026-05-07 04:41 1.0M
20260507T00Z_MSC_GDPS_WindU_AGL-40m_LatLon0.15_PT156H.grib2 2026-05-07 04:41 963K
20260507T00Z_MSC_GDPS_WindU_AGL-80m_LatLon0.15_PT156H.grib2 2026-05-07 04:41 1.0M
20260507T00Z_MSC_GDPS_WindU_IsbL-0001_LatLon0.15_PT156H.grib2 2026-05-07 04:41 509K
20260507T00Z_MSC_GDPS_WindU_IsbL-0005_LatLon0.15_PT156H.grib2 2026-05-07 04:41 691K
20260507T00Z_MSC_GDPS_WindU_IsbL-0010_LatLon0.15_PT156H.grib2 2026-05-07 04:41 702K
20260507T00Z_MSC_GDPS_WindU_IsbL-0020_LatLon0.15_PT156H.grib2 2026-05-07 04:41 731K
20260507T00Z_MSC_GDPS_WindU_IsbL-0030_LatLon0.15_PT156H.grib2 2026-05-07 04:41 739K
20260507T00Z_MSC_GDPS_WindU_IsbL-0050_LatLon0.15_PT156H.grib2 2026-05-07 04:41 762K
20260507T00Z_MSC_GDPS_WindU_IsbL-0100_LatLon0.15_PT156H.grib2 2026-05-07 04:41 924K
20260507T00Z_MSC_GDPS_WindU_IsbL-0150_LatLon0.15_PT156H.grib2 2026-05-07 04:41 1.0M
20260507T00Z_MSC_GDPS_WindU_IsbL-0175_LatLon0.15_PT156H.grib2 2026-05-07 04:41 1.0M
20260507T00Z_MSC_GDPS_WindU_IsbL-0200_LatLon0.15_PT156H.grib2 2026-05-07 04:41 847K
20260507T00Z_MSC_GDPS_WindU_IsbL-0225_LatLon0.15_PT156H.grib2 2026-05-07 04:41 857K
20260507T00Z_MSC_GDPS_WindU_IsbL-0250_LatLon0.15_PT156H.grib2 2026-05-07 04:41 858K
20260507T00Z_MSC_GDPS_WindU_IsbL-0275_LatLon0.15_PT156H.grib2 2026-05-07 04:41 887K
20260507T00Z_MSC_GDPS_WindU_IsbL-0300_LatLon0.15_PT156H.grib2 2026-05-07 04:41 879K
20260507T00Z_MSC_GDPS_WindU_IsbL-0350_LatLon0.15_PT156H.grib2 2026-05-07 04:41 893K
20260507T00Z_MSC_GDPS_WindU_IsbL-0400_LatLon0.15_PT156H.grib2 2026-05-07 04:41 1.1M
20260507T00Z_MSC_GDPS_WindU_IsbL-0450_LatLon0.15_PT156H.grib2 2026-05-07 04:41 1.1M
20260507T00Z_MSC_GDPS_WindU_IsbL-0500_LatLon0.15_PT156H.grib2 2026-05-07 04:41 1.1M
20260507T00Z_MSC_GDPS_WindU_IsbL-0550_LatLon0.15_PT156H.grib2 2026-05-07 04:41 1.1M
20260507T00Z_MSC_GDPS_WindU_IsbL-0600_LatLon0.15_PT156H.grib2 2026-05-07 04:41 1.2M
20260507T00Z_MSC_GDPS_WindU_IsbL-0650_LatLon0.15_PT156H.grib2 2026-05-07 04:41 1.2M
20260507T00Z_MSC_GDPS_WindU_IsbL-0700_LatLon0.15_PT156H.grib2 2026-05-07 04:41 1.2M
20260507T00Z_MSC_GDPS_WindU_IsbL-0750_LatLon0.15_PT156H.grib2 2026-05-07 04:41 1.3M
20260507T00Z_MSC_GDPS_WindU_IsbL-0800_LatLon0.15_PT156H.grib2 2026-05-07 04:41 1.4M
20260507T00Z_MSC_GDPS_WindU_IsbL-0850_LatLon0.15_PT156H.grib2 2026-05-07 04:41 1.4M
20260507T00Z_MSC_GDPS_WindU_IsbL-0875_LatLon0.15_PT156H.grib2 2026-05-07 04:41 1.4M
20260507T00Z_MSC_GDPS_WindU_IsbL-0900_LatLon0.15_PT156H.grib2 2026-05-07 04:41 1.5M
20260507T00Z_MSC_GDPS_WindU_IsbL-0925_LatLon0.15_PT156H.grib2 2026-05-07 04:41 1.5M
20260507T00Z_MSC_GDPS_WindU_IsbL-0950_LatLon0.15_PT156H.grib2 2026-05-07 04:41 1.4M
20260507T00Z_MSC_GDPS_WindU_IsbL-0970_LatLon0.15_PT156H.grib2 2026-05-07 04:41 1.4M
20260507T00Z_MSC_GDPS_WindU_IsbL-0985_LatLon0.15_PT156H.grib2 2026-05-07 04:41 1.4M
20260507T00Z_MSC_GDPS_WindU_IsbL-1000_LatLon0.15_PT156H.grib2 2026-05-07 04:41 1.4M
20260507T00Z_MSC_GDPS_WindU_IsbL-1015_LatLon0.15_PT156H.grib2 2026-05-07 04:41 1.3M
20260507T00Z_MSC_GDPS_WindV_AGL-10m_LatLon0.15_PT156H.grib2 2026-05-07 04:41 1.3M
20260507T00Z_MSC_GDPS_WindV_AGL-120m_LatLon0.15_PT156H.grib2 2026-05-07 04:41 1.0M
20260507T00Z_MSC_GDPS_WindV_AGL-40m_LatLon0.15_PT156H.grib2 2026-05-07 04:41 961K
20260507T00Z_MSC_GDPS_WindV_AGL-80m_LatLon0.15_PT156H.grib2 2026-05-07 04:41 966K
20260507T00Z_MSC_GDPS_WindV_IsbL-0001_LatLon0.15_PT156H.grib2 2026-05-07 04:41 567K
20260507T00Z_MSC_GDPS_WindV_IsbL-0005_LatLon0.15_PT156H.grib2 2026-05-07 04:41 615K
20260507T00Z_MSC_GDPS_WindV_IsbL-0010_LatLon0.15_PT156H.grib2 2026-05-07 04:41 633K
20260507T00Z_MSC_GDPS_WindV_IsbL-0020_LatLon0.15_PT156H.grib2 2026-05-07 04:41 667K
20260507T00Z_MSC_GDPS_WindV_IsbL-0030_LatLon0.15_PT156H.grib2 2026-05-07 04:41 861K
20260507T00Z_MSC_GDPS_WindV_IsbL-0050_LatLon0.15_PT156H.grib2 2026-05-07 04:41 896K
20260507T00Z_MSC_GDPS_WindV_IsbL-0100_LatLon0.15_PT156H.grib2 2026-05-07 04:41 852K
20260507T00Z_MSC_GDPS_WindV_IsbL-0150_LatLon0.15_PT156H.grib2 2026-05-07 04:41 1.0M
20260507T00Z_MSC_GDPS_WindV_IsbL-0175_LatLon0.15_PT156H.grib2 2026-05-07 04:41 1.0M
20260507T00Z_MSC_GDPS_WindV_IsbL-0200_LatLon0.15_PT156H.grib2 2026-05-07 04:41 1.0M
20260507T00Z_MSC_GDPS_WindV_IsbL-0225_LatLon0.15_PT156H.grib2 2026-05-07 04:41 854K
20260507T00Z_MSC_GDPS_WindV_IsbL-0250_LatLon0.15_PT156H.grib2 2026-05-07 04:41 854K
20260507T00Z_MSC_GDPS_WindV_IsbL-0275_LatLon0.15_PT156H.grib2 2026-05-07 04:41 939K
20260507T00Z_MSC_GDPS_WindV_IsbL-0300_LatLon0.15_PT156H.grib2 2026-05-07 04:41 931K
20260507T00Z_MSC_GDPS_WindV_IsbL-0350_LatLon0.15_PT156H.grib2 2026-05-07 04:41 945K
20260507T00Z_MSC_GDPS_WindV_IsbL-0400_LatLon0.15_PT156H.grib2 2026-05-07 04:41 885K
20260507T00Z_MSC_GDPS_WindV_IsbL-0450_LatLon0.15_PT156H.grib2 2026-05-07 04:41 884K
20260507T00Z_MSC_GDPS_WindV_IsbL-0500_LatLon0.15_PT156H.grib2 2026-05-07 04:41 890K
20260507T00Z_MSC_GDPS_WindV_IsbL-0550_LatLon0.15_PT156H.grib2 2026-05-07 04:41 1.1M
20260507T00Z_MSC_GDPS_WindV_IsbL-0600_LatLon0.15_PT156H.grib2 2026-05-07 04:41 1.1M
20260507T00Z_MSC_GDPS_WindV_IsbL-0650_LatLon0.15_PT156H.grib2 2026-05-07 04:41 1.2M
20260507T00Z_MSC_GDPS_WindV_IsbL-0700_LatLon0.15_PT156H.grib2 2026-05-07 04:41 1.2M
20260507T00Z_MSC_GDPS_WindV_IsbL-0750_LatLon0.15_PT156H.grib2 2026-05-07 04:41 1.3M
20260507T00Z_MSC_GDPS_WindV_IsbL-0800_LatLon0.15_PT156H.grib2 2026-05-07 04:41 1.3M
20260507T00Z_MSC_GDPS_WindV_IsbL-0850_LatLon0.15_PT156H.grib2 2026-05-07 04:41 1.4M
20260507T00Z_MSC_GDPS_WindV_IsbL-0875_LatLon0.15_PT156H.grib2 2026-05-07 04:41 1.4M
20260507T00Z_MSC_GDPS_WindV_IsbL-0900_LatLon0.15_PT156H.grib2 2026-05-07 04:41 1.4M
20260507T00Z_MSC_GDPS_WindV_IsbL-0925_LatLon0.15_PT156H.grib2 2026-05-07 04:41 1.4M
20260507T00Z_MSC_GDPS_WindV_IsbL-0950_LatLon0.15_PT156H.grib2 2026-05-07 04:41 1.4M
20260507T00Z_MSC_GDPS_WindV_IsbL-0970_LatLon0.15_PT156H.grib2 2026-05-07 04:41 1.4M
20260507T00Z_MSC_GDPS_WindV_IsbL-0985_LatLon0.15_PT156H.grib2 2026-05-07 04:41 1.4M
20260507T00Z_MSC_GDPS_WindV_IsbL-1000_LatLon0.15_PT156H.grib2 2026-05-07 04:41 1.4M
20260507T00Z_MSC_GDPS_WindV_IsbL-1015_LatLon0.15_PT156H.grib2 2026-05-07 04:41 1.3M